Mountain Home, Arkansas, United States (72653)
Lat: 36.34N, Lon: 92.39W
Wx Zone: ARZ005
Local Info
Past Weather Observations for Thursday, July 23, 2015

NOTE: This archive is for the closest National Weather Service station to Mountain Home. Information may differ from the station used for current weather conditions.

Click here for Long-term Archive

Time Weather Temperature Dewpoint Humidity Pressure Winds Precip Visibility
23:53
Clear
75°F / 24°C 73°F / 23°C 94% 29.98 in
(1015 mb)
ENE 4.6 mph
(ENE 7 kph)
- 7SM
22:53
Clear
75°F / 24°C 73°F / 23°C 94% 29.98 in
(1015 mb)
Calm - 7SM
21:53
Clear
75°F / 24°C 73°F / 23°C 94% 29.98 in
(1015 mb)
Calm - 8SM
20:53
Clear
77°F / 25°C 75°F / 24°C 94% 29.98 in
(1015 mb)
Calm - 8SM
19:53
Clear
77°F / 25°C 75°F / 24°C 94% 29.95 in
(1014 mb)
Calm - 7SM
18:53
Partly Cloudy
81°F / 27°C 73°F / 23°C 79% 29.95 in
(1014 mb)
S 3.5 mph
(S 6 kph)
- 8SM
17:53
Mostly Cloudy
81°F / 27°C 73°F / 23°C 79% 29.95 in
(1014 mb)
Calm - 9SM
16:53
Partly Cloudy
82°F / 28°C 75°F / 24°C 79% 29.92 in
(1013 mb)
SSE 4.6 mph
(SSE 7 kph)
- 8SM
15:53
Partly Cloudy
88°F / 31°C 75°F / 24°C 66% 29.95 in
(1014 mb)
SW 3.5 mph
(SW 6 kph)
- 9SM
14:53
Partly Cloudy
88°F / 31°C 73°F / 23°C 62% 29.95 in
(1014 mb)
Calm - 10SM
13:53
Clear
88°F / 31°C 73°F / 23°C 62% 29.95 in
(1014 mb)
SSW 4.6 mph
(SSW 7 kph)
- 10SM
12:53
Clear
86°F / 30°C 73°F / 23°C 66% 29.95 in
(1014 mb)
W 3.5 mph
(W 6 kph)
- 10SM
11:53
Partly Cloudy
82°F / 28°C 75°F / 24°C 79% 29.98 in
(1015 mb)
SSW 3.5 mph
(SSW 6 kph)
- 9SM
10:53
Mostly Cloudy
82°F / 28°C 77°F / 25°C 84% 29.98 in
(1015 mb)
Calm - 8SM
09:53
Partly Cloudy
84°F / 29°C 75°F / 24°C 74% 30.01 in
(1016 mb)
Calm - 9SM
08:53
Mostly Cloudy
81°F / 27°C 75°F / 24°C 84% 29.98 in
(1015 mb)
Calm - 9SM
07:53
Partly Cloudy
79°F / 26°C 75°F / 24°C 89% 29.98 in
(1015 mb)
Calm - 7SM
06:53
Overcast
75°F / 24°C 73°F / 23°C 94% 29.98 in
(1015 mb)
Calm - 7SM
05:53
Partly Cloudy
Fog And Mist
73°F / 23°C 73°F / 23°C 100% 29.95 in
(1014 mb)
Calm - 5SM
04:53
Mostly Cloudy
73°F / 23°C 73°F / 23°C 100% 29.95 in
(1014 mb)
Calm - 7SM
03:53
Partly Cloudy
Fog And Mist
73°F / 23°C 73°F / 23°C 100% 29.92 in
(1013 mb)
Calm - 4SM
02:53
Clear
Fog And Mist
73°F / 23°C 73°F / 23°C 100% 29.92 in
(1013 mb)
Calm - 6SM
01:53
Partly Cloudy
75°F / 24°C 73°F / 23°C 94% 29.92 in
(1013 mb)
S 3.5 mph
(S 6 kph)
- 7SM
00:53
Mostly Cloudy
Fog And Mist
75°F / 24°C 75°F / 24°C 100% 29.92 in
(1013 mb)
S 4.6 mph
(S 7 kph)
- 5SM
00:40
Mostly Cloudy
Fog And Mist
75°F / 24°C 75°F / 24°C 100% 29.92 in
(1013 mb)
SSE 4.6 mph
(SSE 7 kph)
- 4SM
00:31
Mostly Cloudy
Thunder Storms
75°F / 24°C 75°F / 24°C 100% 29.92 in
(1013 mb)
SSE 5.8 mph
(SSE 9 kph)
- 4SM
00:19
Overcast
Thunder Storms
77°F / 25°C 75°F / 24°C 94% 29.92 in
(1013 mb)
SSE 6.9 mph
(SSE 11 kph)
- 2SM
00:16
Overcast
Heavy Rain
77°F / 25°C 75°F / 24°C 94% 29.92 in
(1013 mb)
SSE 9.2 mph
(SSE 15 kph)
- 2 1/2SM
00:10
Mostly Cloudy
Light Rain
77°F / 25°C 75°F / 24°C 94% 29.92 in
(1013 mb)
SSE 6.9 mph
(SSE 11 kph)
- 4SM
Time Weather Temperature Dewpoint Humidity Pressure Winds Precip Visibility


Weather for websites

WeatherForYou.com, LLC is not responsible for any damages or problems caused by this service. Current weather conditions are obtained from the closest station including government and personal stations which may have varying degrees of accuracy. Weather forecasts are derived from the NOAA NDFD. Like all things, this site belongs to Jesus Christ... He just trusts us to maintain it. If you have any questions or comments email webmaster@weatherforyou.com

Copyright © 2015, WeatherForYou.com LLC. All rights reserved.